Theta_e
272 272 271 271 271 272 272 271 272 271 271 271 271 271 271 272 272 272 272 273 273 273 273 273 273 273 274 275 275 275 275 276 276 277 278 278 278 278 278 279 279 279
270 271 272 272 271 272 271 271 271 271 271 271 271 271 272 272 272 272 272 272 272 272 273 273 273 273 274 274 274 274 275 275 275 277 277 277 277 278 278 278 278 279
270 271 271 270 270 270 271 271 271 271 271 271 271 271 271 272 271 272 272 272 271 271 271 272 272 273 273 273 273 273 272 273 274 276 276 276 277 277 277 278 278 278
271 271 270 270 270 270 271 271 271 271 271 271 271 271 271 271 271 271 271 272 271 271 271 271 272 272 272 272 272 272 272 272 273 275 275 276 276 276 276 277 277 278
270 270 270 270 270 271 271 270 270 270 270 270 271 271 271 271 271 271 271 271 271 271 271 271 271 271 271 271 272 271 272 272 273 274 274 274 275 275 276 276 276 277
270 270 270 270 270 270 270 270 270 270 270 270 270 271 270 270 270 270 270 270 270 270 270 270 270 271 271 271 271 271 271 271 272 273 273 273 274 275 275 276 276 276
269 269 269 270 270 270 269 269 270 270 270 270 270 270 270 270 270 270 270 270 270 270 270 270 270 270 271 271 270 270 271 271 271 272 272 273 273 274 275 275 275 275
269 269 270 270 269 269 269 269 269 269 270 270 269 270 270 270 270 270 270 270 270 270 270 270 270 270 270 270 270 270 270 271 271 271 271 272 272 272 273 274 274 274
269 269 269 269 269 269 269 269 269 269 270 269 269 269 270 270 270 270 270 270 270 270 270 270 270 270 270 270 270 270 270 270 271 271 271 271 271 272 272 273 273 273
268 268 269 269 268 268 268 269 269 269 269 269 269 269 269 269 270 270 270 270 270 269 270 270 270 270 270 270 270 269 269 270 271 271 271 271 271 272 272 272 272 273
268 268 268 268 268 268 268 269 269 269 269 269 269 268 269 269 269 270 270 270 269 269 270 270 270 270 270 270 270 270 270 270 270 270 270 271 272 273 274 274 274 275
267 268 268 268 268 268 268 268 268 268 268 268 268 268 269 269 269 269 269 269 270 270 270 270 270 270 270 270 270 271 271 270 271 270 270 271 271 272 272 273 273 274
267 267 268 268 268 268 268 268 268 268 268 268 268 268 268 268 269 269 269 269 269 270 270 270 270 270 270 270 270 270 270 270 270 270 270 271 271 271 272 273 273 273
267 267 267 267 267 267 267 267 267 267 267 268 268 268 268 268 268 268 269 269 269 270 270 270 270 270 270 270 270 270 270 270 270 270 270 270 271 271 272 272 273 273
267 267 267 267 267 267 267 267 267 267 267 267 267 267 268 268 269 269 269 269 269 270 270 270 270 270 270 270 270 270 270 270 270 270 270 270 270 271 271 272 272 272
266 267 266 266 266 266 266 266 266 266 266 266 267 267 268 268 268 269 269 269 269 269 270 270 270 270 272 274 274 271 270 270 270 270 270 270 270 270 271 271 272 272
266 266 266 265 265 265 265 265 265 266 266 266 266 267 267 268 268 268 268 269 269 269 269 270 270 271 273 275 275 276 274 271 270 270 270 270 270 270 270 271 271 272
265 265 265 264 265 264 264 265 265 265 265 265 266 266 267 268 268 268 268 269 269 269 269 270 270 273 275 276 276 277 276 274 273 271 271 271 271 271 271 271 272 272
265 264 264 264 264 264 264 264 264 264 264 265 265 266 267 267 268 268 268 269 269 269 269 270 271 274 275 276 277 278 278 277 275 274 273 272 272 272 272 272 273 273
264 263 263 263 263 264 263 263 263 263 264 265 266 266 267 267 268 268 269 270 270 270 270 271 271 274 276 277 278 278 279 278 276 276 275 274 273 273 273 273 273 274
263 263 262 263 263 263 263 263 263 263 264 265 266 266 267 267 268 268 269 270 271 271 271 272 272 276 277 278 279 280 280 280 278 277 276 276 275 275 274 274 274 275
262 262 262 262 262 262 262 262 263 263 264 265 266 267 268 269 269 270 270 271 271 272 272 272 273 277 278 279 279 280 280 279 279 278 277 276 276 276 276 275 275 275
262 261 261 261 262 262 262 262 263 263 264 266 266 267 267 268 269 270 271 271 272 272 272 272 273 276 278 279 280 280 280 279 279 279 279 277 277 277 277 276 276 276
261 261 261 261 262 262 262 263 263 264 265 266 266 266 267 268 269 270 271 272 272 273 273 273 274 276 278 279 280 281 280 279 279 279 279 279 278 278 277 277 277 278
262 262 262 261 261 262 262 262 263 264 265 266 267 267 268 269 270 270 271 272 273 274 275 275 275 276 278 280 280 281 280 280 279 279 278 279 280 279 279 278 278 278
262 261 261 261 262 262 262 263 264 264 265 266 267 268 268 270 270 271 271 272 273 274 275 276 276 277 278 280 281 281 281 280 279 278 277 278 279 280 279 278 278 278
Wind_Speed
12 12 12 12 12 11 12 12 11 12 12 12 12 12 12 12 13 13 13 13 14 14 14 14 13 14 13 13 14 13 12 13 12 12 12 12 12 14 14 15 15 12
14 13 12 12 11 11 11 12 13 13 13 13 12 12 12 13 14 13 14 14 14 14 14 14 14 14 13 12 11 11 12 13 14 12 13 16 14 14 15 16 15 13
12 12 12 13 12 14 14 13 12 12 12 13 13 12 12 12 13 13 13 13 14 14 14 13 13 13 13 13 13 13 12 12 13 13 13 14 14 14 13 13 12 14
12 13 12 13 13 13 13 12 12 12 12 12 13 13 13 12 13 14 14 15 14 14 14 14 14 14 14 14 13 13 14 14 14 14 13 12 13 13 14 12 13 13
13 13 13 13 13 13 13 13 13 13 14 14 14 14 13 13 14 14 14 14 14 14 13 14 14 14 14 14 14 13 13 13 15 16 16 15 14 13 12 11 11 12
13 13 13 13 13 13 12 13 14 14 14 14 14 13 13 14 14 14 15 15 14 14 14 13 14 14 14 14 14 13 13 13 13 15 16 16 15 14 11 11 11 12
14 13 14 13 13 13 14 14 14 14 13 13 13 14 14 14 15 15 15 15 15 15 14 14 14 14 13 13 13 13 13 14 15 15 15 14 14 15 14 12 12 11
14 13 12 12 14 14 14 13 13 13 13 14 14 14 14 14 15 14 14 15 14 15 15 15 15 14 14 13 13 13 14 12 13 15 15 15 14 14 13 11 10 11
14 13 13 14 14 13 14 14 14 14 13 14 14 13 13 13 14 14 15 15 15 15 15 15 15 15 14 13 12 13 14 14 14 14 14 14 14 14 13 12 12 12
14 13 14 14 14 13 14 14 14 14 13 14 14 13 14 13 14 15 15 15 15 15 15 15 15 15 14 13 14 14 14 13 13 12 12 13 13 13 13 12 12 13
15 14 14 15 15 14 15 15 14 14 13 14 13 14 14 14 14 13 14 14 14 14 15 15 15 15 15 15 14 14 15 15 14 13 13 12 12 12 12 12 12 12
14 14 14 15 15 15 15 15 14 14 14 13 13 14 14 14 14 13 13 14 15 15 15 15 15 14 15 15 15 14 14 13 13 14 14 14 14 13 11 11 11 10
14 14 14 15 15 15 14 14 15 15 15 15 14 15 15 14 14 14 13 14 15 14 15 15 15 15 15 15 15 15 14 12 13 14 14 13 14 14 13 12 11 10
14 14 15 15 14 15 15 15 15 15 15 14 14 14 14 14 14 14 14 13 13 13 14 13 14 14 14 15 14 13 12 13 13 13 13 13 13 13 12 12 12 11
14 14 14 15 15 15 16 16 15 15 15 14 13 13 13 14 14 14 14 14 14 14 14 13 13 13 12 13 13 13 13 14 14 14 14 13 13 13 13 13 12 11
15 15 15 15 15 16 16 16 15 15 15 14 14 14 14 13 13 14 13 13 14 14 13 12 12 11 15 22 20 14 12 12 12 13 13 13 13 13 13 13 13 12
14 14 15 16 15 15 15 15 15 14 14 15 15 14 14 14 13 13 12 12 13 13 13 12 12 12 21 22 23 25 17 13 12 12 12 12 13 13 13 13 12 12
14 15 15 16 15 16 16 15 14 15 15 15 15 15 14 13 13 13 13 13 12 12 12 12 12 17 22 23 23 24 22 14 11 11 12 12 12 13 12 12 12 11
15 15 15 15 15 16 15 15 15 15 15 15 15 14 14 14 13 13 13 12 12 12 12 12 12 18 21 22 22 22 22 19 12 12 12 12 12 13 13 12 11 10
14 15 15 15 15 15 15 15 15 15 15 14 14 14 13 13 13 14 13 12 11 11 11 12 12 17 20 21 20 20 20 17 11 12 12 13 13 13 12 13 13 11
14 14 15 15 15 15 15 14 15 15 15 13 13 13 13 12 12 13 12 12 11 11 11 12 11 19 20 20 20 19 19 17 11 11 12 13 12 13 13 12 12 12
14 14 15 15 15 15 15 15 15 14 15 14 13 13 12 12 12 12 13 13 12 11 11 12 12 19 20 20 20 18 18 10 8 9 11 11 11 12 12 12 12 12
14 15 15 15 14 15 15 15 15 15 14 12 13 13 13 12 12 12 12 12 13 12 11 12 12 16 19 19 18 18 13 8 8 9 8 10 11 10 11 11 11 12
14 14 15 15 15 15 15 15 14 13 13 12 13 13 13 13 12 13 12 11 12 13 12 11 12 15 20 19 19 18 13 9 8 8 9 7 8 9 9 9 13 20
14 14 14 15 15 15 14 15 14 13 13 12 12 12 13 12 12 12 12 12 12 13 17 16 12 14 19 19 18 16 11 6 7 7 8 8 7 7 8 8 9 14
13 14 14 14 15 15 14 14 13 13 13 13 13 12 12 12 12 12 14 13 13 12 11 11 11 10 12 18 16 15 14 7 5 7 7 8 8 6 6 7 8 8
Wind_Direction
312 312 308 307 306 304 303 302 299 297 296 295 293 291 288 287 286 284 282 280 278 276 275 273 272 271 269 268 266 265 266 266 269 267 265 259 254 252 249 248 249 251
309 307 308 308 306 305 304 302 298 295 293 291 290 290 289 286 282 281 280 279 280 280 281 280 275 271 268 270 277 281 272 257 253 255 257 258 257 256 253 251 250 251
307 312 312 309 307 304 303 300 297 294 293 292 291 289 288 287 286 283 281 281 280 279 279 279 277 274 274 270 266 265 269 273 271 261 255 252 252 254 255 255 253 250
318 315 311 309 307 305 303 301 298 296 294 293 293 293 291 288 286 284 281 280 278 276 274 269 267 266 264 265 263 258 260 263 263 266 263 256 254 255 255 256 255 255
316 313 311 309 307 306 304 302 301 299 296 295 294 291 289 289 288 286 285 281 280 278 275 272 270 269 268 267 263 262 257 256 252 249 253 256 258 259 260 258 255 254
312 313 312 311 308 307 306 303 301 299 297 295 292 292 291 289 286 284 282 281 279 277 275 273 271 269 268 268 269 268 266 260 256 251 249 248 249 248 251 250 249 248
314 314 312 310 309 308 306 302 300 298 298 296 295 291 290 287 286 283 282 281 279 277 277 275 272 270 268 266 265 264 261 259 257 255 254 253 253 251 249 249 248 246
314 313 312 311 312 309 304 303 301 300 300 298 294 292 290 287 286 284 281 279 277 275 273 272 271 270 268 267 265 263 262 259 255 250 253 255 255 253 252 252 254 256
315 315 315 313 310 308 305 304 304 302 301 298 296 294 291 288 286 285 282 280 277 275 273 270 267 266 264 261 259 260 260 260 260 259 254 251 249 250 252 252 251 250
314 313 313 313 312 309 307 307 305 303 301 298 297 295 293 290 286 284 281 278 276 274 271 270 267 265 263 260 258 257 259 261 262 261 260 258 257 255 253 249 247 246
314 314 315 316 313 311 309 307 306 304 300 298 296 293 290 289 286 284 282 279 276 273 270 268 265 263 260 257 255 254 253 251 251 251 255 261 263 257 250 256 257 247
315 317 317 315 313 311 310 308 306 303 301 297 294 293 291 288 287 284 281 279 277 275 272 269 267 264 262 261 259 257 256 254 253 251 249 251 256 260 263 262 265 268
317 318 317 314 314 311 308 306 303 302 300 298 296 291 289 288 284 282 279 278 276 274 270 268 266 263 261 259 257 256 256 255 256 254 252 247 249 252 255 257 258 260
318 317 316 314 312 309 306 305 304 302 301 298 295 292 289 287 285 282 281 276 274 273 270 269 265 262 259 257 255 255 253 252 252 251 251 250 249 248 247 251 256 259
317 315 315 313 311 309 307 305 303 301 301 299 295 292 289 287 285 282 281 277 274 270 269 266 264 260 257 254 252 249 246 248 249 250 251 250 248 245 244 243 246 249
315 315 313 313 310 308 307 306 305 304 301 298 295 291 289 286 285 282 278 276 275 272 268 263 259 258 254 252 249 245 240 242 243 246 248 250 250 250 249 244 238 239
315 314 313 311 310 308 307 306 306 304 301 297 295 293 290 288 284 281 276 273 271 270 267 263 258 253 254 254 253 250 245 233 232 235 238 244 249 249 250 247 241 235
314 313 312 310 309 307 307 306 304 302 300 297 296 295 292 290 285 278 275 272 268 266 264 262 260 256 257 258 256 254 249 242 232 225 226 230 235 244 246 247 245 236
313 312 311 309 308 307 306 306 304 301 299 298 296 295 295 291 284 282 278 273 268 266 266 264 261 263 265 264 262 260 256 248 240 229 226 227 227 230 237 241 240 238
312 312 310 308 308 305 305 304 302 301 299 296 295 295 292 290 288 286 283 279 272 265 266 266 263 266 271 272 271 267 262 256 241 237 230 227 226 223 225 233 235 235
312 311 309 308 306 304 303 302 301 300 300 299 298 298 296 294 293 294 291 287 281 277 274 272 270 273 280 281 281 278 273 263 238 232 231 231 228 222 219 220 226 232
312 310 308 307 305 304 303 302 302 301 301 301 300 298 296 293 291 289 290 290 288 283 278 275 272 277 283 284 284 284 283 280 265 235 226 227 228 225 221 220 217 220
311 308 307 305 305 304 302 302 303 303 301 301 301 301 301 299 296 294 292 291 290 288 282 278 277 277 282 286 287 288 286 280 274 273 252 223 224 224 218 217 217 216
308 306 304 305 305 302 301 300 301 299 297 299 299 301 301 299 297 294 293 289 288 287 278 276 278 279 283 288 291 291 286 280 279 275 274 262 233 222 219 220 221 220
305 305 304 303 302 299 298 300 300 299 296 295 294 297 296 298 296 296 297 296 289 283 284 285 279 279 281 287 293 292 289 274 275 273 276 278 273 234 216 221 224 225
305 304 302 301 299 298 297 296 298 297 296 297 297 297 297 296 296 296 295 291 288 288 289 284 281 273 273 281 291 292 291 285 270 278 276 276 277 270 229 219 222 223